User: anonymous   Login
Location: Unspecified
(0.0000°N, 0.0000°E)
Time: 06:25:15
(UTC+01:00)
Language:

ARIANE 5 R/B - Orbit

View from above orbital plane
View from above orbital plane
View from above satellite
View from above satellite

Ground track
Ground track

The orbit data is extracted from the following two-line orbital elements,

1 27510U 02040C   14354.08886917 -.00000008  00000-0 -44126-3 0  1212
2 27510 004.9184 204.0737 7151352 356.9787 036.7706 02.27183729102211
Epoch (UTC): 20 December 2014 02:07:58
Eccentricity: 0.7151352
inclination: 4.9184°
perigee height: 585 km
apogee height: 35544 km
right ascension of ascending node: 204.0737°
argument of perigee: 356.9787°
revolutions per day: 2.27183729
mean anomaly at epoch: 36.7706°
orbit number at epoch: 10221

The dashed part of the orbit path shows where the satellite is in the earth's shadow,  

DLR